FENGYUN 1C DEB

Satellite information

Favourite Embed

Satellite Type and Status

DEBRISIN ORBIT

Key statistics

Satellite FENGYUN 1C DEB at a glance.

Uptime

9715

Days in orbit

Revolutions

≈ 14.3

Per day

Orbit

SSO

Sun Synchronous Orbit

Inclination

98.7

Latest

Satellite identification and parameters

Extended collection of information and parameters for FENGYUN 1C DEB.

Object identification

Identified? True

Debris? True

Object name: FENGYUN 1C DEB

International designator: 1999-025AQW

Object number (NORAD): 30688

Object ID (CCSDS): 30688

Country: PEOPLES REPUBLIC OF CHINA (PRC)

Current information (Y/N): Y

RCS size: SMALL

Orbital parameters

Period: 100.509 minutes

Inclination: 98.7014 deg

SMA: 7160.84 km

Apoapsis: 793.594 km

Periapsis: 771.816 km

RAAN: 60.5936 deg

Eccentricy: 0.00152062

Argument of periapsis: 314.0692 deg

Mean anomaly: 118.5731 deg

Mean motion: 14.32705034 rev/day

Mean motion (dot): 0.00006551 rev/day2

B* drag term: 0.002419015 1/REarth

Two-line elements (TLE)

Creation date: Dec. 13, 2025, 5:47 p.m.

Reference frame: TEME

Reference center: EARTH

Epoch: Dec. 13, 2025, 5:11 a.m. UTC

TLE line 0: 0 FENGYUN 1C DEB

TLE line 1: 1 30688U 99025AQW 25347.21614882 .00006551 00000-0 24190-2 0 9998

TLE line 2: 2 30688 98.7014 60.5936 0015206 314.0692 118.5731 14.32705034972670

Live tracking on map

Real-time ground track for satellite FENGYUN 1C DEB.

In-orbit conjunctions

A list of the most updated potential collisions computed for object FENGYUN 1C DEB.

Target Orbit TCA Probability of collision Miss distance Type
METEOR 2-6 DEB LEO 2025-12-04 14:27:06 0.0001475632 92.0 (m) DEBRIS
COSMOS 2251 DEB LEO 2025-08-11 13:32:57 0.000188352 113.0 (m) DEBRIS
COSMOS 1814 LEO 2025-04-22 21:18:19 0.0004007316 174.0 (m) PAYLOAD
FENGYUN 1C DEB SSO 2025-01-08 04:53:14 0.0001363718 207.0 (m) DEBRIS

Associated space launch

Chinese polar orbiting meteorological satellite

FENGYUN 1C DEB was lifted into orbit during the mission ‘Long March 4B | Feng Yun 1C’, on board a Long March 4B space rocket.

The launch took place on May 10, 1999, 1:33 a.m. from Launch Complex 7.

For more information about the launch, click the button.

Launch to space Long March 4B | Feng Yun 1C
Long March 4B | Feng Yun 1C

Agency: N/A

Status: Launch Successful

Launch date: May 10, 1999, 1:33 a.m. UTC

Rocket: Long March 4B

Launch pad: Launch Complex 7

Location: Taiyuan Satellite Launch Center, People's Republic of China

...

Latest news about this satellite

There are no fresh news available about this satellite. Check back as we update our databases every day.


Newsletter sign-up

Weekly statistics, charts and insights to help you stay on top of the space industry.